{"data":{"norad_id":67784,"intl_designator":"2026-030W","name":"KUIPER-00225","alt_names":[],"object_type":"PAYLOAD","status":"ACTIVE","operator":null,"country":"US","launch_date":"2026-02-12","launch_site_code":"FRGUI","launch_vehicle":null,"mission":null,"orbit_class":"UNKNOWN","rcs_meters":null,"size_class":null,"mass_kg":null,"dimensions":null,"purposes":[],"wikipedia_slug":null,"has_3d_model":false,"image_url":null,"decayed_at":null,"tle_current":{"epoch":"2026-05-25T04:17:55.828032Z","epoch_age_seconds":59240,"freshness":"FRESH","line1":"1 67784U 26030W   26145.17911838  .00001563  00000+0  25322-3 0  9990","line2":"2 67784  51.8970 219.6354 0002880 352.9732   7.1188 14.76431369 16717","mean_motion":14.76431369,"eccentricity":0.000288,"inclination_deg":51.897,"raan_deg":219.6354,"arg_perigee_deg":352.9732,"mean_anomaly_deg":7.1188,"bstar":0.00025322,"rev_number":1671,"period_min":97.532471216412,"perigee_km":638.58985203189,"apogee_km":642.63265102477,"semimajor_km":7018.7482515283,"source":"CELESTRAK","updated_at":"2026-05-25T13:38:07.261255Z"}}}